Vertical_Velocity
-10 2 21 11 13 0 1 3 3 1 4 2 0 0 1 0 -1 -2 -1 -0 2 0 -2 5 2 4 1 -2 1 -1 -1 2 -0 -2 1 2 1 -2 -1 2 2 -1 1
22 2 15 8 12 11 9 4 -1 -2 -5 -4 -3 -1 -1 1 -1 1 1 1 1 1 1 -1 4 5 0 -4 0 4 0 0 -2 -1 -1 -0 1 1 -2 1 2 -1 -2
1 4 0 22 13 13 2 6 9 7 8 5 5 1 1 -1 1 -2 0 2 2 2 1 1 8 -0 -1 2 3 -1 1 -1 0 -0 -2 -1 1 4 0 1 -1 1 0
4 4 -4 2 -5 21 18 4 1 1 5 5 3 1 1 3 0 -1 -1 -0 1 1 -0 -1 4 4 1 0 4 -0 -1 -1 2 1 0 0 1 0 -1 -1 -1 0 3
7 4 -0 3 -1 -3 -6 22 11 -5 -4 1 2 1 1 -1 0 2 0 -0 2 1 -1 0 -1 2 1 1 1 -1 -2 3 -1 3 2 0 -3 -1 0 -2 2 2 -1
7 4 3 2 5 2 1 2 -9 26 9 2 -1 -2 0 -2 -1 -4 1 1 3 -0 0 1 2 1 1 3 2 0 -0 -0 1 -0 -1 4 1 -3 -2 1 2 -2 -5
2 2 1 1 1 2 -1 0 -0 -1 6 13 6 1 1 1 -1 -2 -2 1 3 2 1 -1 2 -0 1 0 1 1 1 1 2 0 1 2 3 3 0 -1 3 2 -1
-1 -0 0 2 0 2 2 1 2 1 -4 -1 9 6 6 5 5 0 -1 -3 1 4 3 4 -2 2 1 1 0 -1 -1 1 1 -2 2 2 2 1 1 -1 -0 -0 3
1 3 -1 -1 1 1 2 2 2 1 -1 -1 3 12 3 5 3 -1 1 2 -1 -2 1 -4 3 1 2 -0 3 -1 -2 1 2 -1 -1 0 2 -1 8 6 3 5 3
2 -1 -0 -1 -2 -1 -2 -0 2 1 -0 0 0 3 8 5 3 -1 0 -2 3 -0 1 -2 -1 4 -1 0 2 1 -0 0 2 -2 -1 5 1 -1 3 4 5 1 3
7 -1 -1 -1 -1 -0 -1 -4 -0 2 3 -1 -1 3 6 0 7 1 -2 0 1 1 -1 0 0 -1 0 -2 2 1 1 1 1 1 -4 1 1 1 1 7 3 9 5
-4 -1 -4 -1 -2 -1 -2 1 -2 -6 1 1 1 -4 13 7 6 9 1 -0 1 -4 1 1 1 1 -2 -1 -2 0 0 -2 1 1 -3 1 0 2 -0 11 1 6 3
-3 -2 -3 -3 -3 -3 -1 -1 -1 -1 -3 1 0 -1 -5 11 7 1 -4 -1 3 -1 3 -1 2 1 3 2 -1 0 1 2 -0 -0 -4 10 1 2 -1 1 11 8 9
-5 -2 -3 -3 -3 -2 -3 -7 -4 -3 -1 -0 0 3 0 5 9 2 0 -3 -2 -2 1 4 0 1 -2 -0 2 1 -2 -2 2 -2 -5 1 1 -4 2 8 9 5 3
-2 -4 -3 -4 -4 -4 -3 -3 -3 -3 -3 -2 -0 3 1 -1 -2 16 1 -4 1 0 -2 -2 1 0 2 -2 2 1 1 -1 2 -2 -3 1 -0 6 -5 -3 20 40 10
-1 -3 -5 -3 -4 -4 -4 -3 -4 -0 -5 -4 2 1 9 -1 -2 3 5 -3 -1 2 2 -3 -1 1 0 2 1 0 1 -0 -1 -2 -2 -1 0 4 -9 14 5 10 30
-4 -7 -2 -4 -4 -4 -4 -3 -3 -3 -2 3 -10 -3 6 0 -2 -6 2 -2 -4 1 1 1 -3 0 -2 1 2 2 0 -1 -1 -0 -0 -5 5 2 -8 3 -21 137 35
-1 2 -2 -4 -2 -2 -3 -3 -4 -0 2 2 2 -1 -1 1 1 -4 -3 5 1 -1 -2 1 3 -3 -1 -2 -1 2 -1 -2 -4 1 1 -5 4 -5 -2 -8 -1 -18 -10
-5 -7 -6 -2 -4 -5 -1 -2 -2 -2 -2 -1 -2 -4 0 6 4 -0 -1 20 2 2 -4 -0 1 3 1 -2 2 1 1 -3 -3 0 -1 -4 9 -5 6 6 5 -6 1
-2 -1 -1 -3 -4 -4 -4 -3 -1 -2 -1 -1 -1 -2 -1 3 -2 6 2 -7 19 4 -3 -2 1 1 -1 0 11 -3 0 -2 -4 -1 -1 2 -0 3 -1 8 13 6 -1
-0 -1 -3 -4 -3 -6 -7 -10 -2 -8 -4 -1 -1 -1 -4 -5 2 3 6 1 -3 4 1 0 -1 -1 8 -2 1 3 6 -1 -2 -1 -2 4 1 6 6 16 -6 5 6
-5 -3 -4 -4 -3 -4 -4 -3 -6 -6 -4 -5 -4 -2 -2 -3 -3 -2 6 -0 12 15 4 -2 0 3 2 -1 1 4 1 1 2 -2 -1 3 -0 9 1 15 9 1 6
-3 -4 -5 -3 -4 -3 -3 -3 -0 4 3 -2 2 -3 -1 -0 -1 -5 6 2 -1 5 14 4 -0 0 -2 3 -2 2 -3 -2 -1 0 7 7 4 9 21 14 8 1 3
-3 -4 -2 -2 -3 -3 -3 -4 -4 -5 -10 -0 -6 -2 -5 -2 1 0 2 0 6 12 9 -1 4 -1 9 -3 8 3 -2 -1 -3 -1 8 4 8 4 32 6 7 8 6
-3 -4 -4 -2 -1 -1 -1 -2 -3 -3 -2 -4 -2 -4 1 -2 2 5 -3 5 -5 9 -9 1 5 -7 -2 13 -1 -0 4 4 1 -8 -2 6 10 18 13 16 -7 3 -8
0 -0 -1 -3 -1 -1 -2 -2 -2 -2 -3 -6 -2 -5 -2 -3 -4 6 2 1 -6 -2 25 -7 3 7 -5 6 6 2 -2 -13 -10 -14 -11 -3 9 18 6 1 12 6 0
Height
1538 1536 1542 1542 1538 1539 1540 1540 1541 1541 1542 1542 1543 1544 1544 1543 1543 1543 1543 1543 1542 1542 1542 1543 1542 1542 1542 1542 1544 1544 1544 1544 1544 1545 1545 1545 1544 1545 1546 1546 1547 1547 1548
1540 1540 1544 1543 1544 1542 1540 1541 1541 1541 1542 1543 1543 1544 1544 1544 1544 1544 1543 1543 1542 1542 1544 1543 1543 1543 1544 1544 1544 1545 1545 1545 1545 1546 1547 1547 1547 1547 1548 1548 1549 1549 1549
1539 1537 1538 1542 1545 1545 1544 1544 1544 1543 1543 1542 1543 1543 1544 1544 1544 1544 1544 1544 1543 1542 1543 1543 1542 1543 1543 1544 1544 1545 1546 1546 1546 1547 1548 1550 1549 1549 1549 1550 1550 1551 1551
1539 1539 1541 1541 1541 1544 1547 1546 1546 1545 1545 1544 1544 1544 1544 1544 1544 1544 1544 1544 1543 1542 1542 1543 1543 1543 1543 1544 1544 1545 1545 1546 1547 1548 1548 1551 1550 1549 1550 1551 1552 1554 1554
1541 1540 1541 1542 1542 1542 1543 1545 1545 1545 1546 1546 1545 1545 1544 1544 1544 1544 1544 1543 1543 1542 1542 1542 1543 1543 1543 1544 1545 1545 1546 1546 1547 1547 1550 1550 1550 1549 1551 1552 1553 1555 1555
1542 1541 1541 1541 1541 1542 1542 1542 1542 1545 1544 1544 1544 1544 1544 1543 1543 1543 1543 1543 1543 1543 1542 1543 1542 1542 1543 1543 1544 1545 1545 1545 1546 1547 1549 1548 1548 1549 1551 1553 1555 1555 1557
1543 1542 1541 1541 1541 1541 1541 1541 1541 1541 1542 1544 1544 1543 1543 1543 1543 1543 1542 1542 1542 1542 1542 1542 1542 1542 1542 1542 1542 1543 1544 1544 1545 1547 1547 1547 1547 1548 1550 1552 1555 1555 1556
1545 1542 1542 1541 1541 1541 1541 1540 1540 1540 1541 1540 1543 1543 1543 1543 1542 1542 1541 1542 1541 1541 1541 1541 1541 1541 1541 1542 1541 1542 1542 1543 1544 1545 1547 1547 1547 1547 1549 1551 1553 1555 1556
1547 1544 1542 1541 1541 1540 1539 1539 1539 1539 1539 1539 1540 1541 1541 1541 1541 1541 1540 1540 1540 1540 1540 1539 1540 1540 1539 1540 1540 1540 1541 1542 1542 1545 1545 1545 1545 1547 1549 1551 1552 1555 1556
1546 1543 1541 1541 1540 1539 1539 1539 1538 1538 1537 1537 1537 1538 1539 1540 1539 1539 1539 1538 1538 1538 1538 1538 1538 1538 1538 1539 1539 1539 1540 1540 1541 1542 1543 1544 1544 1545 1548 1550 1552 1554 1556
1545 1542 1540 1539 1539 1538 1538 1537 1536 1536 1535 1535 1535 1536 1537 1537 1537 1537 1537 1537 1536 1536 1537 1537 1536 1536 1536 1537 1537 1538 1538 1539 1539 1539 1542 1542 1542 1544 1546 1548 1550 1553 1556
1542 1540 1539 1538 1537 1536 1536 1535 1535 1535 1533 1533 1533 1533 1534 1535 1535 1535 1535 1535 1534 1534 1534 1535 1535 1535 1535 1535 1535 1536 1537 1537 1537 1538 1539 1540 1541 1543 1544 1547 1548 1550 1553
1544 1543 1540 1537 1536 1534 1533 1532 1531 1531 1531 1531 1531 1531 1530 1532 1532 1532 1532 1532 1532 1531 1532 1532 1532 1532 1532 1532 1533 1534 1534 1535 1535 1536 1537 1539 1540 1541 1542 1544 1546 1547 1548
1546 1542 1540 1538 1535 1533 1532 1530 1529 1528 1528 1528 1528 1528 1528 1526 1528 1529 1529 1528 1528 1529 1528 1529 1530 1530 1529 1530 1530 1531 1532 1533 1534 1534 1536 1537 1538 1539 1539 1540 1541 1541 1543
1547 1544 1541 1538 1535 1532 1530 1527 1527 1526 1524 1524 1523 1524 1524 1524 1524 1525 1524 1523 1524 1524 1525 1526 1526 1526 1527 1527 1527 1529 1529 1530 1531 1532 1533 1535 1536 1536 1535 1536 1536 1526 1536
1548 1543 1541 1538 1535 1531 1529 1526 1524 1521 1521 1519 1519 1520 1520 1519 1520 1520 1520 1520 1519 1520 1520 1521 1523 1523 1523 1523 1523 1524 1525 1526 1527 1529 1530 1531 1532 1533 1534 1536 1534 1524 1509
1546 1544 1541 1536 1534 1531 1527 1524 1520 1518 1515 1514 1515 1514 1513 1512 1515 1515 1516 1515 1515 1515 1516 1517 1518 1519 1519 1520 1520 1520 1521 1522 1523 1525 1526 1527 1529 1530 1534 1535 1535 1504 1525
1551 1545 1538 1536 1532 1529 1526 1522 1519 1515 1512 1509 1508 1507 1506 1507 1509 1509 1509 1510 1511 1510 1511 1511 1513 1513 1514 1515 1516 1515 1517 1518 1520 1521 1522 1524 1524 1527 1531 1534 1537 1532 1530
1549 1545 1542 1536 1530 1526 1523 1520 1516 1512 1509 1506 1503 1502 1501 1501 1502 1501 1502 1504 1505 1505 1505 1505 1508 1507 1509 1510 1511 1512 1512 1513 1515 1516 1519 1520 1521 1523 1527 1529 1532 1535 1537
1549 1544 1540 1535 1531 1526 1520 1517 1515 1510 1506 1502 1499 1497 1495 1493 1495 1492 1495 1497 1497 1499 1499 1501 1502 1501 1504 1506 1506 1507 1508 1509 1510 1512 1515 1516 1517 1520 1522 1525 1527 1531 1534
1549 1543 1539 1534 1528 1523 1519 1513 1508 1505 1501 1497 1494 1492 1489 1488 1486 1487 1487 1489 1491 1493 1494 1495 1497 1497 1499 1500 1504 1503 1503 1504 1506 1506 1511 1512 1513 1516 1519 1518 1523 1528 1532
1548 1544 1539 1534 1528 1523 1518 1513 1509 1503 1499 1494 1490 1488 1484 1482 1480 1481 1479 1481 1481 1484 1486 1488 1491 1491 1492 1495 1498 1500 1499 1501 1501 1502 1506 1508 1509 1511 1513 1515 1518 1524 1530
1546 1542 1537 1533 1528 1524 1518 1512 1507 1503 1498 1492 1486 1482 1480 1477 1474 1471 1472 1471 1472 1473 1477 1481 1484 1486 1487 1490 1493 1495 1495 1495 1496 1499 1500 1502 1505 1503 1505 1510 1513 1520 1526
1544 1541 1537 1533 1527 1523 1517 1511 1505 1498 1492 1487 1482 1478 1475 1472 1469 1467 1464 1464 1463 1467 1470 1472 1477 1480 1481 1483 1487 1487 1489 1490 1491 1497 1498 1500 1499 1502 1497 1504 1508 1516 1522
1542 1538 1534 1531 1526 1521 1516 1510 1503 1497 1492 1485 1479 1474 1470 1467 1464 1459 1457 1456 1457 1458 1462 1464 1468 1471 1473 1475 1478 1482 1483 1486 1487 1487 1493 1498 1499 1497 1493 1499 1507 1517 1524
1541 1536 1532 1527 1523 1518 1513 1508 1502 1495 1488 1482 1476 1470 1464 1460 1456 1454 1451 1448 1448 1450 1451 1454 1459 1463 1465 1468 1471 1474 1475 1477 1479 1481 1488 1497 1495 1497 1496 1504 1511 1519 1525